Wind_Speed
59 60 61 62 64 64 65 66 67 68 69 69 70 71 71 72 72 73 73 74 74 74 75 76 78 78 79 79 80 80 81 81 82 82 82 82 82 82 82 81 81 80 78 77 77 77 75 75 75 74 75 76 76 77 77 77 77 76 76 76 77 77 77
61 62 63 64 66 67 68 68 69 70 71 72 72 73 73 73 74 74 75 75 76 76 77 78 79 80 80 81 81 81 82 83 83 82 82 82 82 82 81 80 80 79 77 75 75 74 73 73 73 74 74 75 75 76 76 76 75 74 74 74 74 74 74
64 65 66 66 67 68 70 70 71 72 73 74 74 74 75 75 75 76 76 77 77 78 78 79 80 81 81 82 82 82 83 83 83 83 82 82 82 81 80 79 78 77 76 74 73 72 72 72 73 74 74 74 74 74 74 73 72 71 71 71 71 71 72
66 67 68 69 69 70 71 72 73 74 75 75 76 76 76 76 77 77 78 78 79 79 80 80 81 82 82 83 84 83 84 83 83 83 82 82 81 80 79 78 77 75 74 73 72 71 72 72 73 73 74 73 72 72 71 70 69 69 69 69 69 70 70
68 69 70 70 71 72 73 74 75 76 77 77 78 78 77 78 78 79 79 80 80 81 81 81 82 82 83 84 84 84 84 83 82 82 82 81 80 79 78 76 75 74 73 72 71 71 72 72 73 73 72 71 70 69 69 68 67 67 67 67 68 70 70
70 70 71 72 73 74 75 76 78 79 79 79 79 79 79 80 80 80 81 81 82 82 82 83 83 83 84 84 84 84 84 83 82 81 81 80 79 77 76 75 74 73 72 72 72 72 72 72 72 71 70 69 68 68 67 67 66 66 67 67 68 70 70
70 71 72 74 75 76 77 78 80 81 81 81 81 81 82 82 82 82 82 83 83 83 84 84 84 84 84 84 83 83 83 82 81 81 80 78 77 76 75 74 73 72 72 72 72 72 72 71 70 69 68 67 67 66 66 66 66 66 67 68 69 70 71
72 73 74 75 77 78 79 80 81 82 83 83 84 84 84 84 84 84 84 84 84 85 85 85 84 84 83 83 83 83 83 82 81 80 78 77 76 75 74 73 73 72 72 72 72 72 71 69 68 67 66 66 66 66 66 67 67 67 68 69 70 70 71
73 74 76 77 78 79 81 82 83 84 85 86 86 87 86 86 86 85 85 85 86 86 85 85 84 84 83 83 83 82 82 81 80 78 77 76 76 75 74 73 73 72 72 72 71 70 69 67 66 65 65 65 65 66 66 67 68 69 69 70 70 70 71
75 76 77 78 80 81 83 84 85 86 87 88 89 88 88 87 87 87 87 87 87 86 85 84 84 83 83 82 82 81 80 79 78 77 76 76 75 74 74 73 73 72 72 71 70 68 66 65 64 64 65 65 65 66 67 67 69 69 70 71 71 70 70
77 78 79 80 82 83 85 86 87 88 89 90 90 90 89 88 87 87 88 88 87 86 84 84 83 82 81 81 81 80 79 78 77 76 76 75 75 74 73 73 72 71 71 69 67 66 65 64 64 64 64 65 65 66 67 68 69 70 70 71 71 69 68
79 81 82 83 84 85 87 88 88 89 90 91 90 90 88 88 87 87 88 88 87 85 84 83 82 81 80 79 79 79 78 77 77 76 75 75 74 74 73 72 71 70 68 67 65 64 64 63 64 64 64 65 66 67 67 68 68 69 69 70 70 68 66
82 83 84 86 87 88 88 89 89 90 90 89 89 89 88 87 87 88 88 88 86 84 83 82 81 79 78 78 79 79 77 77 76 76 75 75 74 73 72 70 69 68 66 65 64 63 63 63 64 64 64 65 66 66 67 67 68 69 69 68 68 66 64
85 86 87 88 89 89 90 89 89 89 89 88 88 88 87 87 87 88 88 86 84 83 81 80 79 78 78 78 78 78 78 77 76 76 75 74 73 71 70 68 67 66 65 64 63 63 62 63 64 64 65 66 66 66 66 67 67 68 68 67 66 64 62
88 89 90 90 91 91 90 90 89 89 88 88 87 86 87 87 87 86 85 83 82 81 80 79 78 78 79 78 78 78 78 77 76 75 74 72 71 69 68 66 65 65 65 64 63 63 63 64 64 65 65 66 66 66 66 67 67 67 66 65 63 61 60
92 92 92 92 92 92 91 90 89 88 87 86 85 85 86 86 85 84 82 81 80 79 79 79 79 79 80 79 78 78 78 77 75 74 72 70 69 67 65 64 64 65 64 63 64 64 64 65 65 65 65 66 66 66 66 66 65 65 64 63 61 59 59
94 94 94 93 92 91 89 87 86 84 83 82 82 82 82 83 82 81 80 80 80 80 80 80 80 80 80 79 78 77 77 76 74 72 70 68 66 65 64 63 64 64 64 63 64 65 65 66 65 65 65 66 66 65 65 65 63 62 61 61 60 58 57
94 93 92 90 88 86 84 82 80 79 78 77 77 78 79 79 79 79 79 80 80 81 81 80 80 80 79 77 76 76 75 74 72 69 67 66 65 64 63 63 63 64 64 64 64 65 66 66 65 65 65 65 65 64 64 63 62 60 59 58 58 57 56
88 86 83 81 79 77 76 74 74 73 73 73 74 75 76 76 77 77 78 79 80 79 79 79 78 78 77 75 74 72 72 71 69 67 66 65 64 63 62 63 64 64 64 64 65 65 66 65 65 65 65 64 64 63 62 61 60 58 58 56 56 56 55
76 73 71 69 68 67 67 67 67 68 69 70 71 73 74 74 74 74 75 76 76 76 75 75 76 76 75 73 70 69 69 68 68 67 66 65 64 63 62 63 64 64 64 65 65 65 65 65 65 64 64 63 63 62 61 59 58 57 56 55 55 55 55
64 62 61 60 60 60 60 60 61 63 65 66 67 69 71 71 70 69 70 71 72 72 71 71 72 72 72 71 69 67 67 68 68 68 67 66 65 64 64 64 64 64 65 65 65 64 65 65 64 64 63 62 62 60 59 58 56 55 55 54 54 54 53
59 59 58 58 58 58 58 59 59 60 61 63 64 65 67 67 66 66 66 67 68 68 68 68 68 69 70 70 69 68 68 68 69 69 68 67 66 65 65 64 64 65 65 65 64 64 64 64 63 63 62 61 60 58 57 56 55 54 54 53 53 53 52
60 60 60 60 60 60 60 61 61 61 62 62 63 64 65 65 65 66 66 67 67 67 67 68 68 69 70 70 70 69 69 69 69 69 68 67 67 66 66 65 65 65 64 64 64 63 63 63 62 62 60 59 58 56 55 55 53 53 53 52 52 52 51
62 62 62 62 63 63 63 63 64 64 64 65 65 66 66 67 67 68 69 69 69 69 68 69 69 70 71 72 71 70 70 70 70 69 69 68 67 67 66 65 65 64 64 63 63 63 62 62 61 60 59 57 56 55 54 53 52 52 51 51 51 51 51
64 64 65 65 65 65 66 66 66 67 67 67 68 68 69 69 70 70 71 72 72 71 71 71 71 72 72 72 72 71 71 71 70 70 69 68 67 66 66 65 64 63 63 62 62 62 61 61 60 59 57 55 54 53 52 52 51 51 50 50 50 49 49
66 66 67 67 67 67 68 68 69 69 69 70 70 71 71 71 71 72 73 73 74 74 73 73 73 73 73 73 72 72 71 71 71 70 69 67 66 66 65 64 63 62 62 61 61 60 59 59 58 57 55 54 52 51 51 50 49 49 49 48 48 48 47
68 68 69 69 69 69 70 70 70 71 72 72 73 73 73 73 73 73 74 75 75 75 75 75 74 73 73 72 72 71 71 70 70 69 68 66 65 64 63 63 62 61 60 59 59 58 57 57 56 55 53 52 50 49 49 48 48 48 47 47 46 46 44
70 70 70 71 71 71 71 72 72 73 74 74 74 74 74 75 75 75 75 76 76 76 75 75 74 73 72 71 70 70 69 69 68 67 66 64 63 62 61 60 60 59 58 57 56 55 55 55 54 52 51 49 48 47 46 46 46 46 46 45 44 42 41
72 72 72 73 73 73 73 74 74 75 76 76 76 76 76 76 76 76 76 76 76 75 74 73 72 71 69 68 67 67 66 66 65 64 63 62 60 59 58 58 57 56 55 54 53 53 52 52 51 49 48 47 46 45 44 44 45 44 43 42 41 39 37
73 74 74 74 74 75 75 75 75 76 76 76 76 76 76 76 76 75 74 74 73 72 71 69 68 67 66 65 64 63 63 63 62 61 60 59 58 56 56 55 54 53 52 51 50 50 49 49 47 46 45 44 44 43 43 43 43 42 41 39 37 35 34
75 75 75 75 75 75 75 75 75 75 75 75 74 74 74 74 73 72 71 70 69 68 66 65 64 63 62 61 61 60 60 60 59 58 57 56 54 53 52 52 51 50 49 48 47 47 47 46 44 43 43 42 42 41 41 41 40 39 38 36 33 32 31
76 76 75 75 75 74 74 74 73 73 73 72 71 71 71 70 69 68 67 66 65 63 62 62 61 60 60 59 58 57 57 57 56 55 53 52 51 50 49 48 48 47 46 45 45 45 44 42 42 41 40 40 40 40 39 38 37 36 34 32 30 30 30
75 75 74 74 73 73 72 71 71 71 70 69 68 67 67 66 65 64 64 63 62 60 59 59 59 58 57 57 56 55 54 53 52 51 50 48 47 46 46 45 44 44 43 43 43 42 41 40 39 39 39 38 38 37 37 36 34 32 31 29 28 28 29
72 72 72 72 71 70 69 68 68 68 67 66 65 65 64 63 62 61 61 60 60 58 57 57 56 55 55 54 53 52 51 50 49 47 46 45 44 43 43 42 42 41 41 41 41 40 38 37 37 37 37 36 36 35 34 33 31 29 28 27 27 27 28
70 69 69 68 67 67 67 66 66 65 63 62 62 61 61 61 61 59 59 59 58 56 55 54 53 52 52 51 50 49 48 46 45 44 43 42 42 41 41 40 40 39 39 39 38 37 36 36 36 36 35 35 34 33 31 30 28 27 26 25 26 26 28
66 66 66 65 65 64 64 64 63 62 61 60 59 59 59 59 59 58 57 57 56 55 53 51 50 49 49 48 48 46 45 44 43 42 41 40 40 39 39 39 38 38 37 37 36 36 35 34 34 34 33 33 31 30 28 27 26 25 24 24 25 26 27
Wind_Direction
279 279 279 280 280 281 281 282 282 283 283 283 284 284 284 284 284 285 285 285 286 286 286 286 287 287 287 288 288 288 288 289 289 289 288 288 288 287 287 286 286 285 284 284 283 283 282 281 281 281 280 280 280 280 280 279 279 278 277 277 276 275 274
279 279 279 280 281 281 281 282 282 282 283 283 283 284 284 285 285 285 285 286 286 286 286 286 287 287 287 287 288 288 288 288 288 288 288 288 287 287 286 286 286 285 285 284 283 283 282 282 282 281 281 281 281 281 280 280 279 278 278 277 277 276 276
280 280 280 280 281 281 281 282 282 282 282 283 283 284 285 285 285 285 286 286 286 286 286 286 286 287 287 287 287 287 287 287 288 288 287 287 287 287 286 286 285 285 285 284 283 283 283 282 282 282 281 281 281 281 280 280 279 279 279 278 278 278 278
280 281 281 281 281 281 281 282 282 282 283 283 284 284 285 285 286 285 285 285 286 286 286 286 286 286 286 286 287 287 287 287 287 287 287 287 287 286 286 285 285 285 284 284 283 283 282 282 282 282 282 282 282 281 280 280 280 280 280 280 280 280 280
280 281 281 281 282 282 282 282 282 283 283 284 284 285 285 285 285 285 285 285 285 285 285 285 285 285 285 286 286 286 286 286 286 286 286 286 286 286 286 285 285 284 284 284 284 283 283 282 282 282 282 282 282 281 281 281 281 281 281 282 282 282 282
281 281 282 282 282 282 282 282 282 283 284 284 285 285 285 285 284 284 284 284 284 285 285 285 285 285 285 285 285 285 285 285 285 285 285 286 286 285 285 285 284 284 284 284 284 284 283 283 283 283 283 282 282 282 282 282 282 283 283 283 283 283 283
281 281 281 282 282 282 282 282 283 283 284 284 284 284 284 284 284 284 284 284 284 284 284 284 285 285 285 284 284 284 284 284 284 284 285 285 285 285 285 284 284 284 284 284 284 284 284 283 283 283 283 283 283 283 283 283 284 284 285 285 285 284 284
281 281 282 282 282 282 282 283 283 284 284 284 284 284 284 284 284 283 283 283 283 283 284 284 285 284 284 284 283 283 283 283 283 284 284 284 284 284 284 284 284 284 284 284 284 284 283 283 283 283 283 283 283 284 284 284 285 286 286 286 285 285 284
282 282 282 282 282 282 282 283 283 284 284 284 284 284 284 284 283 283 282 282 282 283 284 284 284 284 283 283 282 282 282 282 283 283 284 284 284 284 284 284 284 284 284 284 284 283 283 283 282 283 283 283 284 284 285 285 286 286 286 286 285 285 284
282 282 282 282 282 282 282 283 283 283 283 283 283 283 283 283 282 282 281 281 282 283 283 284 283 283 282 281 281 281 281 282 283 283 283 283 283 284 284 284 284 284 284 283 283 282 282 282 283 283 283 284 284 285 285 286 286 287 287 286 286 285 285
282 282 282 282 282 282 282 283 283 282 282 282 282 282 282 282 281 281 281 281 282 283 283 283 282 282 281 280 280 280 281 282 283 283 283 283 283 284 284 284 284 283 283 282 282 282 282 283 283 283 283 284 284 285 286 286 287 287 287 287 286 286 285
283 283 282 282 282 282 282 282 281 281 281 281 281 281 281 280 280 280 280 281 282 283 283 282 281 280 280 280 280 281 281 282 282 282 283 283 283 284 284 284 283 283 282 282 282 282 283 283 283 283 284 284 285 285 286 287 287 287 287 286 286 286 285
284 283 283 282 282 281 281 280 280 280 280 280 280 280 280 279 279 279 280 281 282 282 282 281 280 279 279 280 281 282 282 283 283 283 283 284 284 284 284 284 283 283 282 282 283 283 283 283 283 283 284 284 285 285 286 286 286 286 286 286 286 286 285
284 283 282 282 281 280 280 279 279 279 279 279 279 279 278 278 278 279 280 281 281 281 280 279 279 279 280 281 282 283 283 284 284 284 284 284 284 284 284 283 283 283 283 283 283 283 283 283 283 283 284 284 285 286 286 286 286 286 286 285 285 285 284
284 283 282 281 280 279 279 279 278 278 278 278 277 277 276 276 277 278 279 279 279 279 279 279 279 280 280 281 282 283 283 284 284 284 284 284 284 283 283 283 283 283 283 283 283 283 283 283 283 283 284 284 285 285 286 286 285 285 285 285 284 284 283
283 282 281 280 280 279 279 279 278 278 277 276 276 275 275 276 277 277 278 278 278 278 278 279 279 280 281 282 282 283 283 283 284 284 283 283 283 283 283 283 283 283 283 283 283 283 283 283 283 283 284 284 285 285 285 285 285 285 284 284 283 283 282
283 282 281 281 280 280 279 279 278 277 276 275 274 273 273 274 275 276 277 277 277 278 278 279 280 280 281 282 283 283 283 284 283 283 283 283 283 283 283 283 283 282 283 283 282 282 282 282 283 283 284 284 284 285 285 284 284 284 283 283 283 282 281
283 282 282 281 280 279 279 278 276 275 275 274 273 272 272 273 274 275 275 276 276 277 278 279 280 281 282 282 283 283 283 283 283 283 282 283 283 283 283 283 282 282 282 282 281 281 281 282 282 283 283 284 284 284 284 284 284 283 282 282 282 281 281
283 282 281 281 280 279 278 277 276 275 274 273 272 272 272 272 273 274 275 275 276 277 278 279 280 281 281 282 282 282 282 282 282 282 282 282 282 282 282 281 281 281 281 280 280 281 281 282 282 283 283 283 284 283 283 283 283 282 282 281 281 281 281
282 282 281 280 280 279 278 278 276 275 274 274 273 272 273 274 274 275 275 276 276 277 278 279 280 280 281 281 281 281 281 281 281 281 281 281 282 281 281 280 280 280 280 280 280 281 281 282 282 283 283 283 283 283 283 282 282 282 281 281 281 281 281
281 281 280 280 280 280 279 278 278 277 276 275 275 274 274 275 276 276 276 277 277 278 278 279 279 279 280 280 280 280 280 280 280 280 280 281 281 281 280 280 280 280 280 280 280 281 281 282 282 282 283 283 283 283 282 282 282 281 281 281 281 281 282
281 281 281 281 280 280 280 279 279 278 277 277 276 276 276 276 277 277 277 277 277 278 278 278 278 279 279 279 279 279 279 279 280 280 280 281 280 280 279 279 279 279 280 280 281 281 281 282 282 282 282 282 282 282 282 282 281 281 281 281 281 282 282
282 281 281 281 281 280 280 279 279 279 278 278 277 277 277 277 278 278 277 277 277 277 278 278 278 278 278 278 279 279 279 279 279 279 280 280 279 279 279 279 278 279 279 280 280 281 281 281 281 281 281 282 282 282 281 281 281 281 281 281 282 282 282
282 282 282 281 281 280 280 279 279 279 278 278 278 277 277 277 277 277 277 278 277 277 277 277 277 277 277 278 278 278 278 278 278 278 278 278 279 279 279 278 279 279 279 279 279 279 279 279 280 280 280 280 280 280 280 281 281 281 281 282 282 283 283
282 282 281 281 281 280 279 279 279 278 278 278 277 277 277 277 277 277 277 277 277 277 277 276 276 276 277 277 277 277 277 277 277 277 278 278 278 278 278 278 278 278 278 278 278 278 278 278 278 278 279 279 279 280 280 280 281 281 281 282 283 283 282
282 282 281 281 280 279 279 279 278 278 278 277 277 277 277 277 277 277 276 276 277 277 276 276 276 276 276 277 277 277 277 277 277 277 277 277 277 277 278 278 278 277 277 277 277 277 277 277 277 277 278 278 278 279 279 280 280 280 281 282 282 282 281
282 282 281 281 280 279 279 279 278 278 278 277 277 278 277 277 277 276 276 276 276 276 276 276 276 276 276 276 277 277 277 277 277 277 277 277 277 277 277 277 277 277 276 276 276 276 275 275 276 276 277 277 277 278 278 279 279 280 281 281 281 281 280
282 282 281 280 280 280 279 279 278 278 278 278 278 277 277 276 276 276 276 276 276 276 276 277 277 277 276 276 276 277 277 277 277 277 277 277 276 276 276 276 276 275 275 274 274 274 274 274 274 275 275 276 276 277 277 278 279 280 280 280 280 279 277
282 281 281 280 280 279 279 278 278 278 277 277 277 277 276 276 276 276 276 276 276 276 277 277 277 277 277 276 276 276 276 276 276 276 276 276 276 276 276 276 275 274 273 273 272 272 272 272 273 274 274 275 275 276 277 277 278 279 279 279 278 276 272
282 281 280 280 279 279 278 278 277 277 277 277 277 276 276 276 276 276 276 276 277 277 278 278 278 277 277 276 276 276 275 275 275 275 276 276 276 276 275 274 273 272 272 271 271 271 271 271 272 272 273 274 275 275 276 277 278 278 278 277 275 271 268
282 281 280 280 279 278 278 278 277 277 277 277 277 277 277 277 277 277 277 277 277 278 278 278 277 277 277 276 276 275 275 275 275 275 276 276 275 274 273 272 271 271 270 270 270 269 270 270 271 271 272 273 274 275 276 277 277 277 276 274 270 266 265
282 281 280 280 279 279 279 278 278 277 277 277 277 277 277 277 277 277 277 277 277 277 277 277 276 276 276 275 275 275 275 275 275 275 275 274 273 272 271 270 269 269 269 268 268 268 269 270 270 271 271 272 273 274 275 276 276 274 272 269 265 263 266
281 280 280 279 279 279 279 278 278 278 278 278 277 277 277 277 277 277 277 277 277 277 276 276 276 275 275 275 275 275 274 274 274 274 273 272 271 270 269 268 268 267 267 267 267 267 268 269 269 270 271 272 273 274 274 274 273 270 267 263 261 263 268
280 280 279 279 279 278 278 277 277 277 278 278 278 277 277 277 276 276 276 276 276 275 275 275 275 275 275 274 274 274 273 273 272 272 271 271 269 268 267 266 266 265 265 265 266 266 267 268 269 270 271 272 272 273 272 272 269 264 260 259 261 266 271
280 280 279 279 279 278 278 277 277 276 276 277 277 277 277 276 276 276 275 275 275 275 274 274 274 274 273 273 273 272 272 271 270 269 269 268 267 266 265 264 264 264 264 264 265 266 266 267 268 269 270 271 271 271 270 268 263 258 255 257 263 269 275
280 280 280 279 279 278 277 277 277 277 277 276 276 275 275 275 275 275 275 275 275 274 273 272 272 272 271 271 271 271 270 269 268 267 266 265 265 264 263 262 262 262 263 264 265 265 266 266 267 268 269 269 269 268 266 261 256 252 253 259 265 271 277
Height
5503 5502 5500 5498 5496 5495 5493 5491 5489 5487 5485 5483 5481 5478 5476 5474 5472 5470 5467 5465 5463 5461 5458 5455 5453 5450 5447 5444 5442 5440 5437 5435 5432 5430 5428 5425 5423 5421 5418 5417 5414 5413 5415 5413 5408 5405 5404 5402 5399 5398 5396 5395 5393 5392 5390 5388 5387 5385 5383 5380 5379 5378 5377
5495 5494 5492 5490 5488 5486 5484 5482 5480 5478 5476 5474 5471 5469 5467 5464 5462 5460 5457 5455 5453 5450 5448 5445 5442 5439 5436 5433 5431 5429 5426 5423 5421 5419 5417 5414 5412 5410 5408 5405 5403 5401 5402 5402 5398 5395 5393 5391 5388 5387 5385 5383 5382 5380 5378 5376 5375 5373 5371 5369 5367 5366 5365
5486 5485 5483 5481 5479 5478 5475 5473 5471 5469 5466 5464 5462 5459 5457 5454 5452 5450 5447 5444 5442 5439 5437 5435 5432 5429 5425 5422 5420 5418 5414 5412 5409 5407 5405 5403 5401 5399 5397 5394 5392 5391 5390 5390 5388 5385 5382 5380 5378 5376 5374 5372 5370 5368 5366 5364 5363 5361 5360 5358 5356 5355 5354
5477 5475 5474 5472 5470 5468 5466 5463 5461 5458 5456 5454 5452 5449 5447 5444 5442 5439 5437 5434 5431 5428 5426 5424 5421 5418 5414 5411 5409 5407 5403 5401 5398 5395 5393 5392 5390 5387 5386 5383 5381 5380 5378 5378 5377 5375 5372 5369 5367 5365 5363 5361 5359 5356 5354 5353 5352 5350 5348 5347 5345 5343 5342
5468 5466 5464 5462 5460 5458 5456 5453 5450 5448 5446 5444 5442 5439 5437 5434 5431 5428 5426 5423 5420 5418 5415 5413 5410 5407 5404 5400 5398 5395 5392 5389 5387 5385 5382 5380 5378 5376 5374 5372 5371 5369 5367 5366 5365 5364 5361 5358 5356 5354 5352 5350 5348 5345 5343 5342 5341 5339 5338 5337 5335 5332 5331
5459 5456 5454 5452 5450 5447 5445 5442 5439 5437 5435 5433 5431 5429 5426 5423 5420 5418 5415 5412 5409 5407 5404 5402 5399 5396 5393 5389 5386 5384 5381 5378 5376 5374 5372 5370 5367 5365 5363 5362 5360 5358 5356 5355 5354 5352 5350 5348 5345 5343 5341 5339 5336 5335 5333 5331 5330 5329 5327 5326 5324 5322 5320
5449 5447 5444 5442 5439 5437 5434 5431 5428 5426 5424 5422 5420 5417 5415 5412 5409 5407 5404 5401 5398 5396 5393 5391 5388 5385 5382 5378 5375 5372 5370 5367 5365 5363 5361 5359 5357 5354 5352 5351 5349 5347 5346 5344 5342 5341 5339 5337 5334 5332 5330 5328 5326 5324 5322 5320 5319 5319 5317 5315 5313 5312 5309
5439 5436 5433 5431 5428 5426 5423 5420 5417 5415 5413 5410 5408 5405 5402 5400 5398 5395 5393 5390 5387 5385 5383 5380 5377 5374 5371 5367 5364 5361 5359 5356 5354 5352 5351 5349 5346 5344 5342 5340 5339 5337 5336 5333 5331 5330 5327 5326 5324 5322 5320 5318 5316 5314 5312 5310 5308 5308 5307 5305 5303 5301 5298
5428 5425 5423 5420 5417 5415 5411 5408 5406 5403 5400 5397 5395 5392 5390 5388 5386 5383 5381 5378 5376 5374 5372 5369 5366 5363 5359 5356 5353 5350 5348 5346 5344 5342 5340 5338 5336 5334 5332 5330 5329 5327 5325 5323 5321 5319 5317 5315 5314 5312 5310 5308 5306 5304 5302 5300 5298 5297 5296 5294 5292 5291 5287
5418 5415 5412 5409 5406 5403 5400 5397 5395 5391 5388 5384 5381 5379 5377 5375 5373 5370 5368 5366 5364 5363 5361 5358 5355 5351 5348 5345 5342 5339 5337 5336 5334 5331 5330 5327 5325 5323 5322 5320 5318 5317 5315 5312 5310 5309 5307 5305 5304 5302 5300 5298 5296 5294 5292 5290 5288 5286 5285 5282 5282 5281 5277
5407 5404 5401 5398 5395 5392 5388 5386 5383 5379 5375 5371 5368 5367 5365 5362 5360 5357 5355 5353 5352 5351 5349 5346 5343 5339 5336 5333 5330 5328 5326 5325 5323 5321 5319 5317 5315 5313 5312 5310 5308 5306 5304 5302 5300 5299 5297 5295 5294 5292 5290 5288 5286 5284 5282 5281 5278 5275 5274 5271 5270 5270 5267
5397 5393 5390 5386 5383 5380 5377 5374 5371 5366 5362 5359 5356 5354 5352 5349 5347 5345 5342 5341 5341 5339 5337 5334 5330 5327 5325 5322 5319 5317 5316 5314 5312 5310 5308 5306 5304 5303 5301 5300 5297 5295 5293 5291 5290 5289 5287 5286 5284 5282 5280 5278 5276 5274 5273 5271 5268 5265 5263 5261 5258 5258 5257
5385 5381 5378 5374 5371 5368 5365 5362 5358 5354 5350 5347 5343 5341 5339 5337 5334 5332 5330 5330 5329 5327 5324 5321 5318 5316 5314 5312 5308 5306 5305 5303 5301 5299 5298 5296 5294 5292 5290 5289 5287 5284 5283 5281 5280 5279 5278 5276 5273 5272 5271 5268 5266 5265 5263 5261 5258 5255 5253 5251 5248 5248 5246
5372 5369 5365 5362 5358 5355 5352 5349 5346 5341 5337 5334 5331 5328 5326 5324 5321 5319 5318 5318 5317 5314 5311 5308 5306 5304 5303 5301 5299 5295 5293 5292 5290 5288 5286 5285 5283 5282 5280 5278 5276 5274 5272 5270 5270 5269 5268 5266 5263 5262 5261 5259 5257 5256 5254 5251 5249 5246 5243 5241 5239 5238 5236
5358 5355 5352 5348 5345 5341 5339 5336 5333 5328 5324 5321 5318 5315 5311 5310 5310 5308 5307 5306 5305 5302 5300 5297 5295 5293 5291 5290 5289 5287 5283 5281 5280 5278 5276 5274 5273 5272 5270 5268 5266 5263 5262 5261 5259 5259 5258 5256 5254 5252 5252 5250 5248 5246 5244 5242 5239 5236 5234 5232 5230 5229 5227
5344 5340 5337 5334 5330 5327 5325 5322 5318 5314 5311 5308 5306 5302 5298 5296 5297 5297 5296 5294 5293 5291 5288 5286 5285 5283 5281 5279 5278 5277 5274 5271 5269 5268 5266 5265 5263 5261 5260 5259 5256 5253 5252 5251 5249 5248 5247 5246 5244 5243 5242 5240 5238 5237 5235 5232 5230 5227 5224 5222 5222 5221 5218
5328 5325 5321 5318 5315 5312 5310 5307 5304 5300 5297 5295 5293 5290 5286 5285 5284 5284 5283 5282 5280 5278 5277 5275 5274 5272 5270 5268 5267 5265 5262 5260 5258 5257 5256 5255 5253 5252 5251 5249 5246 5243 5243 5242 5239 5238 5237 5236 5235 5234 5232 5230 5229 5227 5225 5223 5221 5219 5215 5213 5212 5212 5210
5312 5309 5306 5303 5300 5297 5295 5293 5290 5287 5285 5283 5281 5277 5275 5274 5273 5273 5271 5270 5268 5267 5265 5264 5263 5260 5258 5257 5256 5254 5251 5249 5247 5247 5246 5245 5244 5243 5242 5240 5236 5234 5233 5232 5230 5228 5227 5226 5225 5224 5223 5221 5219 5218 5216 5213 5212 5210 5207 5206 5204 5202 5201
5297 5294 5291 5288 5286 5283 5281 5279 5277 5274 5272 5271 5268 5266 5263 5263 5262 5262 5260 5259 5257 5256 5255 5253 5252 5250 5248 5246 5244 5243 5241 5239 5237 5236 5236 5235 5235 5234 5233 5229 5226 5225 5224 5222 5220 5219 5217 5216 5216 5214 5213 5212 5210 5209 5207 5204 5202 5200 5198 5198 5196 5193 5192
5282 5280 5278 5275 5273 5271 5269 5267 5265 5263 5260 5259 5257 5254 5252 5252 5252 5251 5250 5248 5246 5245 5244 5243 5241 5239 5237 5235 5234 5233 5231 5229 5226 5226 5225 5225 5226 5226 5224 5220 5217 5215 5214 5212 5211 5209 5208 5206 5205 5204 5203 5202 5201 5200 5198 5196 5194 5192 5190 5189 5187 5185 5184
5271 5269 5267 5265 5262 5260 5258 5256 5254 5252 5249 5248 5246 5244 5242 5241 5241 5240 5239 5237 5236 5234 5233 5232 5230 5228 5226 5224 5223 5223 5221 5219 5216 5215 5215 5216 5216 5215 5213 5211 5209 5205 5203 5202 5201 5200 5198 5197 5195 5194 5193 5192 5191 5190 5189 5187 5186 5184 5182 5180 5179 5177 5176
5261 5259 5257 5255 5253 5251 5249 5246 5244 5242 5240 5238 5236 5234 5232 5230 5230 5229 5228 5227 5225 5224 5223 5222 5220 5218 5215 5213 5213 5212 5211 5209 5207 5205 5205 5206 5206 5204 5203 5202 5200 5196 5194 5193 5191 5190 5188 5187 5186 5185 5184 5183 5182 5181 5180 5178 5177 5175 5173 5172 5170 5169 5168
5251 5249 5247 5245 5243 5241 5239 5237 5235 5232 5230 5228 5226 5224 5222 5220 5219 5218 5216 5216 5215 5214 5213 5211 5210 5208 5204 5202 5202 5202 5200 5199 5197 5195 5195 5195 5195 5194 5193 5191 5190 5188 5186 5184 5182 5180 5179 5177 5176 5175 5175 5174 5173 5172 5171 5169 5168 5167 5165 5164 5162 5161 5160
5241 5239 5237 5235 5233 5231 5229 5227 5225 5223 5220 5218 5216 5214 5212 5210 5209 5207 5205 5204 5204 5204 5203 5201 5199 5197 5194 5192 5192 5191 5190 5189 5187 5186 5185 5185 5184 5183 5182 5181 5180 5179 5177 5175 5174 5172 5170 5169 5168 5167 5166 5166 5165 5164 5163 5161 5160 5159 5157 5156 5154 5153 5151
5231 5229 5227 5225 5223 5221 5218 5216 5214 5212 5210 5208 5206 5204 5202 5200 5199 5197 5195 5193 5192 5192 5192 5190 5189 5187 5184 5182 5181 5180 5179 5178 5177 5175 5175 5175 5174 5173 5171 5171 5170 5169 5168 5166 5164 5163 5161 5160 5159 5158 5158 5158 5157 5156 5155 5154 5152 5151 5149 5148 5146 5145 5143
5220 5218 5216 5214 5212 5209 5207 5205 5203 5201 5199 5196 5195 5193 5191 5190 5189 5186 5183 5181 5180 5179 5179 5179 5178 5176 5175 5172 5170 5168 5167 5166 5165 5165 5165 5165 5164 5163 5162 5161 5160 5159 5158 5157 5155 5154 5153 5151 5150 5150 5150 5150 5149 5148 5147 5146 5144 5143 5142 5140 5139 5137 5135
5209 5207 5204 5202 5200 5198 5196 5194 5192 5190 5187 5184 5183 5182 5180 5178 5177 5175 5172 5170 5168 5167 5166 5167 5166 5165 5164 5162 5159 5157 5156 5155 5154 5154 5154 5154 5154 5153 5152 5151 5150 5149 5148 5147 5146 5145 5144 5143 5142 5142 5142 5142 5141 5140 5140 5138 5137 5135 5134 5133 5132 5130 5128
5197 5195 5192 5190 5188 5186 5184 5182 5179 5177 5174 5173 5171 5170 5168 5166 5164 5162 5160 5158 5156 5155 5155 5155 5154 5153 5152 5151 5149 5147 5146 5144 5143 5142 5143 5143 5143 5143 5143 5142 5141 5140 5139 5138 5138 5137 5136 5135 5135 5135 5134 5134 5133 5133 5132 5131 5129 5128 5127 5126 5125 5124 5122
5184 5182 5179 5177 5175 5173 5171 5169 5167 5164 5162 5161 5159 5157 5155 5153 5151 5149 5148 5146 5145 5144 5144 5143 5142 5140 5140 5139 5138 5137 5136 5134 5133 5132 5133 5133 5133 5133 5133 5132 5131 5130 5129 5129 5129 5129 5128 5127 5127 5127 5127 5127 5126 5125 5125 5124 5123 5121 5120 5119 5118 5118 5117
5171 5169 5166 5164 5162 5160 5158 5156 5155 5152 5149 5148 5146 5144 5142 5140 5138 5137 5136 5134 5133 5133 5133 5131 5130 5129 5128 5127 5126 5126 5125 5124 5123 5123 5123 5124 5124 5124 5124 5123 5121 5121 5121 5121 5121 5120 5120 5120 5120 5120 5120 5120 5119 5118 5118 5117 5116 5115 5114 5113 5112 5112 5111
5157 5155 5152 5150 5148 5146 5144 5143 5141 5139 5137 5135 5134 5132 5130 5128 5126 5125 5124 5122 5122 5122 5122 5120 5119 5117 5116 5116 5116 5116 5115 5114 5114 5115 5115 5115 5115 5115 5114 5113 5113 5112 5112 5113 5113 5113 5113 5113 5113 5113 5113 5113 5112 5112 5111 5111 5110 5109 5108 5107 5107 5107 5107
5142 5140 5138 5136 5134 5132 5131 5129 5127 5125 5124 5123 5121 5119 5118 5116 5114 5113 5112 5111 5111 5112 5111 5110 5108 5107 5106 5106 5106 5106 5106 5105 5105 5106 5106 5106 5106 5106 5105 5105 5105 5105 5105 5105 5105 5105 5106 5107 5107 5107 5106 5106 5106 5106 5105 5104 5104 5103 5102 5102 5102 5102 5102
5129 5126 5124 5122 5121 5120 5118 5116 5114 5112 5111 5111 5109 5108 5106 5105 5103 5102 5101 5100 5101 5102 5101 5099 5098 5098 5097 5096 5097 5097 5096 5097 5097 5097 5097 5097 5097 5097 5097 5097 5097 5098 5098 5098 5098 5099 5100 5100 5100 5100 5100 5100 5100 5099 5099 5098 5098 5097 5097 5097 5098 5098 5098
5115 5112 5110 5109 5108 5107 5106 5104 5103 5101 5100 5099 5097 5096 5095 5094 5093 5092 5091 5090 5090 5092 5092 5090 5089 5088 5087 5087 5087 5088 5088 5088 5088 5088 5089 5089 5089 5089 5090 5090 5090 5091 5091 5092 5092 5093 5093 5094 5094 5094 5094 5094 5094 5094 5093 5093 5093 5093 5093 5093 5094 5094 5094
5102 5099 5098 5097 5096 5094 5093 5092 5091 5091 5090 5089 5087 5085 5084 5083 5082 5082 5081 5080 5080 5082 5082 5082 5080 5079 5079 5078 5079 5079 5080 5080 5081 5081 5082 5082 5082 5082 5083 5083 5084 5084 5085 5086 5086 5087 5087 5088 5088 5088 5088 5088 5088 5088 5088 5088 5088 5088 5089 5090 5090 5090 5090
5089 5087 5085 5084 5084 5082 5080 5080 5080 5079 5079 5078 5077 5075 5073 5072 5072 5072 5071 5070 5070 5071 5072 5073 5073 5072 5071 5070 5070 5071 5072 5073 5074 5074 5075 5075 5076 5076 5077 5077 5078 5078 5079 5080 5080 5081 5082 5082 5082 5082 5083 5083 5083 5083 5083 5084 5084 5085 5085 5086 5086 5086 5085